Weather in Novy Batako

Russia / Republic of North Ossetia — Alania     43°12′49″N   44°29′30″E
temp.,
°C
wind,
m/s
gust,
m/s
humid.,
%
clouds,
%
prec.,
mm/h
press.,
hPa
HPBL,
m
23 october, sat
sat2300:00+11ssw00600 0.0 102010
03:00+10nnw00630 0.0 102110
06:00+9ssw01680 0.0 102110
09:00+13sse11550 0.0 1021144
12:00+18n11390 0.0 1020686
15:00+19nne11360 0.0 10191007
18:00+13ene22540 0.0 101911
21:00+12ese11590 0.0 101910
24 october, sun
sun2400:00+10ssw11650 0.0 101910
03:00+10sw11715 0.0 101910
06:00+9wsw01775 0.0 102010
09:00+13wnw116212 0.0 1019180
12:00+17nnw214337 0.0 1017817
15:00+17n224277 0.0 1015915
18:00+12ne2258100 0.0 101613
21:00+11ne1160100 0.0 101611
25 october, mon
mon2500:00+10w2266100 0.0 101615
03:00+9wnw3789100 0.2 1019606
06:00+6nw3689100 2.9 1023899
09:00+5wnw2593100 4.0 1025756
12:00+5nw3480100 0.6 1025730
15:00+6wnw3477100 0.8 1026860
18:00+5nw588396 0.9 1029781
21:00+4wnw367894 1.3 1031886
26 october, tue
tue2600:00+2wsw237989 0.1 103286
03:00+1sw238829 0.1 103265
06:00+1w118518 0.0 103311
09:00+4nw116521 0.0 1033495
12:00+7n215533 0.0 1032939
15:00+7n21535 0.0 10311051
18:00+4ne33655 0.0 103258
21:00+3ene35685 0.0 103286
27 october, wed
wed2700:00+2e23700 0.0 103260
03:00+1e22740 0.0 103120
06:000e22771 0.0 103118
09:00+4e23610 0.0 1030346
12:00+8e45460 0.0 1027685
15:00+9e45450 0.0 1025636
18:00+5ene35620 0.0 102579
21:00+4e11720 0.0 102414